Estación Meteorológica de la Universidad de Murcia
Estación Meteorológica de la Universidad de Murcia
Universidad de Murcia
 

Velocidad y dirección del vientoVelocidad y dirección del viento

 

Velocidad: 35,28 km/h a las 15:19:00 del día 21/08/2019
Dirección del viento: 296,6 º NW Rosa de los vientos a las 15:19:00 del día 21/08/2019

Nota:
N (entre 337,6º y 22,5º), NE (entre 22,6º y 67,5º), E (entre 67,6º y 112,5º), SE (entre 112,6º y 157,5º), S (entre 157,6º y 202,5º), SW (entre 202,6º y 247,5º), W (entre 247,5º y 292,5º) y NW (entre 292,6º y 337,5º)

||Velocidad últimos meses|| ----||Dirección del viento||


Velocidad

  • 1 - 35,28 km/h del día 21/08/2019
  • 2 - 43,56 km/h del día 20/08/2019
  • 3 - 37,08 km/h del día 19/08/2019
  • 4 - 25,56 km/h del día 18/08/2019
  • 5 - 28,8 km/h del día 17/08/2019
  • 6 - 33,12 km/h del día 16/08/2019
  • 7 - 29,52 km/h del día 15/08/2019
  • 8 - 30,96 km/h del día 14/08/2019
  • 9 - 34,92 km/h del día 13/08/2019
  • 10 - 36,72 km/h del día 12/08/2019
  • 11 - 28,8 km/h del día 11/08/2019
  • 12 - 37,08 km/h del día 10/08/2019
  • 13 - 23,04 km/h del día 09/08/2019
  • 14 - 30,96 km/h del día 08/08/2019
  • 15 - 25,56 km/h del día 07/08/2019
  • 16 - 26,28 km/h del día 06/08/2019
  • 17 - 33,84 km/h del día 05/08/2019
  • 18 - 29,88 km/h del día 04/08/2019
  • 19 - 29,88 km/h del día 03/08/2019
  • 20 - 28,44 km/h del día 02/08/2019
  • 21 - 27,72 km/h del día 01/08/2019
  • 22 - 39,24 km/h del día 31/07/2019
  • 23 - 38,52 km/h del día 30/07/2019
  • 24 - 28,08 km/h del día 29/07/2019
  • 25 - 37,44 km/h del día 28/07/2019
  • 26 - 43,92 km/h del día 27/07/2019
  • 27 - 29,52 km/h del día 26/07/2019
  • 28 - 34,92 km/h del día 25/07/2019
  • 29 - 33,12 km/h del día 24/07/2019
  • 30 - 35,64 km/h del día 23/07/2019
  • 31 - 37,08 km/h del día 22/07/2019
  • 32 - 41,76 km/h del día 21/07/2019
  • 33 - 39,24 km/h del día 20/07/2019
  • 34 - 34,56 km/h del día 19/07/2019
  • 35 - 29,88 km/h del día 18/07/2019
  • 36 - 35,28 km/h del día 17/07/2019
  • 37 - 34,92 km/h del día 16/07/2019
  • 38 - 59,04 km/h del día 15/07/2019
  • 39 - 37,8 km/h del día 14/07/2019
  • 40 - 36,72 km/h del día 13/07/2019
  • 41 - 31,32 km/h del día 12/07/2019
  • 42 - 32,4 km/h del día 11/07/2019
  • 43 - 32,4 km/h del día 10/07/2019
  • 44 - 36,72 km/h del día 09/07/2019
  • 45 - 35,64 km/h del día 08/07/2019
  • 46 - 38,88 km/h del día 07/07/2019
  • 47 - 58,32 km/h del día 06/07/2019
  • 48 - 32,4 km/h del día 05/07/2019
  • 49 - 34,92 km/h del día 04/07/2019
  • 50 - 36 km/h del día 03/07/2019
  • 51 - 32,4 km/h del día 02/07/2019
  • 52 - 33,48 km/h del día 01/07/2019
  • 53 - 32,04 km/h del día 30/06/2019
  • 54 - 29,52 km/h del día 29/06/2019
  • 55 - 30,24 km/h del día 28/06/2019
  • 56 - 43,56 km/h del día 27/06/2019
  • 57 - 33,48 km/h del día 26/06/2019
  • 58 - 34,56 km/h del día 25/06/2019
  • 59 - 33,84 km/h del día 24/06/2019
  • 60 - 30,24 km/h del día 23/06/2019

||Volver al inicio de la página||


Dirección del viento

  • 1 - 1031.16 º 1031,16 del día 31/07/2019
  • 2 - 1330.91 º 1330,91 del día 30/07/2019
  • 3 - 1519.77 º 1519,77 del día 30/06/2019
  • 4 - 1214.1 º 1214,1 del día 29/07/2019
  • 5 - 1624.55 º 1624,55 del día 29/06/2019
  • 6 - 1807.29 º 1807,29 del día 28/07/2019
  • 7 - 1554.58 º 1554,58 del día 28/06/2019
  • 8 - 2316.15 º 2316,15 del día 27/07/2019
  • 9 - 1466.47 º 1466,47 del día 27/06/2019
  • 10 - 1697.02 º 1697,02 del día 26/07/2019
  • 11 - 1599.85 º 1599,85 del día 26/06/2019
  • 12 - 1552.12 º 1552,12 del día 25/07/2019
  • 13 - 1341.19 º 1341,19 del día 25/06/2019
  • 14 - 1578.01 º 1578,01 del día 24/07/2019
  • 15 - 1511.97 º 1511,97 del día 24/06/2019
  • 16 - 1628.52 º 1628,52 del día 23/07/2019
  • 17 - 1442.15 º 1442,15 del día 23/06/2019
  • 18 - 2445.19 º 2445,19 del día 22/08/2019
  • 19 - 1284.2 º 1284,2 del día 22/07/2019
  • 20 - 1159.34 º 1159,34 del día 22/06/2019
  • 21 - 1037.62 º 1037,62 del día 21/08/2019
  • 22 - 1476.91 º 1476,91 del día 21/07/2019
  • 23 - 1010.33 º 1010,33 del día 20/08/2019
  • 24 - 1536.92 º 1536,92 del día 20/07/2019
  • 25 - 1501.03 º 1501,03 del día 19/08/2019
  • 26 - 1225.23 º 1225,23 del día 19/07/2019
  • 27 - 1352.48 º 1352,48 del día 18/08/2019
  • 28 - 1230.01 º 1230,01 del día 18/07/2019
  • 29 - 1252.42 º 1252,42 del día 17/08/2019
  • 30 - 1443.05 º 1443,05 del día 17/07/2019
  • 31 - 1077.32 º 1077,32 del día 16/08/2019
  • 32 - 882.05 º N del día 16/07/2019
  • 33 - 998.1 º N del día 15/08/2019
  • 34 - 1488.58 º 1488,58 del día 15/07/2019
  • 35 - 1322.36 º 1322,36 del día 14/08/2019
  • 36 - 1766.22 º 1766,22 del día 14/07/2019
  • 37 - 1035.97 º 1035,97 del día 13/08/2019
  • 38 - 1203.46 º 1203,46 del día 13/07/2019
  • 39 - 1861.35 º 1861,35 del día 12/08/2019
  • 40 - 1514.53 º 1514,53 del día 12/07/2019
  • 41 - 921.43 º N del día 11/08/2019
  • 42 - 1600.17 º 1600,17 del día 11/07/2019
  • 43 - 1756.2 º 1756,2 del día 10/08/2019
  • 44 - 1244.05 º 1244,05 del día 10/07/2019
  • 45 - 1977.8 º 1977,8 del día 09/08/2019
  • 46 - 2080.76 º 2080,76 del día 09/07/2019
  • 47 - 1939.86 º 1939,86 del día 08/08/2019
  • 48 - 1076.16 º 1076,16 del día 08/07/2019
  • 49 - 1557.22 º 1557,22 del día 07/08/2019
  • 50 - 1309.16 º 1309,16 del día 07/07/2019
  • 51 - 1384.78 º 1384,78 del día 06/08/2019
  • 52 - 1561.95 º 1561,95 del día 06/07/2019
  • 53 - 1094.44 º 1094,44 del día 05/08/2019
  • 54 - 1459.36 º 1459,36 del día 05/07/2019
  • 55 - 1353.8 º 1353,8 del día 04/08/2019
  • 56 - 1476.4 º 1476,4 del día 04/07/2019
  • 57 - 1206.77 º 1206,77 del día 03/08/2019
  • 58 - 1494.72 º 1494,72 del día 03/07/2019
  • 59 - 1348.42 º 1348,42 del día 02/08/2019
  • 60 - 959.82 º N del día 02/07/2019
  • 61 - 1648.04 º 1648,04 del día 01/08/2019
  • 62 - 1459.65 º 1459,65 del día 01/07/2019

|| Temperatura Ambiente|| Humedad relativa|| Precipitación|| Radiación Solar Global y PAR|| Temperatura y humedad del suelo|| Presión atmosférica|| Más información|| Volver a la página principal|| Volver al inicio de la página||


Estación Meteorológica de la Universidad de Murcia
http://estacion.um.es/
Informacion actualizada a: 22/08/2019 a las 06:37:00